Miscellaneous Local Product
Issued by NWS Hastings, NE

Home | Current Version | Previous Version | Graphics & Text | Print | Product List | Glossary On
Versions: 1 2 3 4 5 6 7 8 9 10 11 12 13 14 15 16 17 18 19 20 21 22 23 24 25 26 27 28 29 30 31 32 33 34 35 36 37 38 39 40 41 42 43 44 45 46 47 48 49 50
000
AXUS43 KGID 231302
MISGRI

GID CWA HOURLY WEATHER ROUNDUP
NATIONAL WEATHER SERVICE HASTINGS NE
800 AM CDT MON OCT 23 2017

NOTE: "FAIR" INDICATES FEW OR NO CLOUDS BELOW 12,000 FEET WITH NO
SIGNIFICANT WEATHER AND/OR OBSTRUCTIONS TO VISIBILITY.

...SOUTH CENTRAL NEBRASKA...

CITY           SKY/WX    TMP DP  RH WIND       PRES   REMARKS
GRAND ISLAND   PTCLDY    56  40  55 NW14      30.06R
KEARNEY        CLOUDY    56  34  43 NW18G24   30.09R
HASTINGS       PTCLDY    56  38  50 NW21G29   30.06R
ORD            CLOUDY    56  33  42 NW21G29   30.07R
YORK           CLEAR     57  39  51 NW16G23   30.00R
AURORA         PTCLDY    56  38  50 NW10G17   30.03R
LEXINGTON      MOCLDY    54  33  44 NW20G25   30.16R
HOLDREGE       CLOUDY    55  36  48 NW17G24   30.12R
HEBRON         CLOUDY    58  39  50 NW12      30.00R

...NEBRASKA PANHANDLE...

CITY           SKY/WX    TMP DP  RH WIND       PRES   REMARKS
CHADRON        CLEAR     43  23  45 W18       30.27R
ALLIANCE       MOCLDY    47  21  35 NW15      30.26R
SCOTTSBLUFF    CLOUDY    48  21  34 W14       30.32R
SIDNEY         CLOUDY    45  27  49 NW18G30   30.31R

...WESTERN AND NORTH CENTRAL NEBRASKA...

CITY           SKY/WX    TMP DP  RH WIND       PRES   REMARKS
VALENTINE      CLEAR     51  25  36 NW20G28   30.14R
AINSWORTH      CLEAR     50  28  42 NW22G28   30.12R
ONEILL         PTCLDY    53  32  45 NW18G31   30.06S
BROKEN BOW     CLOUDY    56  26  31 NW25G38   30.12R
IMPERIAL       CLOUDY    46  37  71 N10       30.25R
NORTH PLATTE   CLOUDY    49  38  65 NW14      30.20R
MCCOOK         MOCLDY    52  35  52 N21G30    30.18R

...EASTERN NEBRASKA...

CITY           SKY/WX    TMP DP  RH WIND       PRES   REMARKS
NORFOLK        CLOUDY    57  40  52 NW18G29   29.98R
SO SIOUX CITY  CLOUDY    54  44  69 NW17G29   29.92R
TEKAMAH        CLOUDY    58  37  45 N9G17     29.93R
COLUMBUS       MOCLDY    59  40  49 NW21G26   29.99R
ALBION         CLOUDY    58  37  45 NW26G38   30.04R
OMAHA EPPLEY   MOCLDY    50  37  61 N8        29.92R
OFFUTT AFB     CLOUDY    52  37  57 N9        29.91R
MILLARD        CLOUDY    58  40  51 NW9       29.92S
LINCOLN        CLEAR     58  38  47 N15       29.97R
NEBRASKA CITY  PTCLDY    53  38  55 N15G21    29.92R
BEATRICE       CLEAR     51  40  66 NW10      29.97R
FALLS CITY     CLEAR     45  38  76 W6        29.90R

...NORTHERN KANSAS...

CITY           SKY/WX    TMP DP  RH WIND       PRES   REMARKS
GOODLAND       CLOUDY    50  34  54 N21G33    30.21R
HILL CITY      CLOUDY    56  38  50 N17G31    30.15R
NORTON         SUNNY     54  30  40 NW18G29   30.15R
PHILLIPSBURG   CLEAR     57  37  47 NW18G26   30.11R
SMITH CENTER   PTCLDY    55  37  50 NW21G26   30.07R
HAYS           CLOUDY    57  37  47 N20G33    30.09R
RUSSELL        CLOUDY    55  38  52 N18G29    30.06R
CONCORDIA      PTCLDY    52  38  58 NW8       30.01R
SALINA         PTCLDY    51  38  60 NW12      30.00R
TOPEKA         CLEAR     46  40  79 SW6       29.92S



USA.gov is the U.S. government's official web portal to all federal, state and local government web resources and services.